Year,Month,Day,Hour,Minute,Value (Times are PST for windgust in km/hr)
2006,02,03,00,00,4.80
2006,02,03,00,01,3.20
2006,02,03,00,02,3.20
2006,02,03,00,03,3.20
2006,02,03,00,04,3.20
2006,02,03,00,05,3.20
2006,02,03,00,06,4.80
2006,02,03,00,07,6.40
2006,02,03,00,08,8.10
2006,02,03,00,09,9.60
2006,02,03,00,10,6.40
2006,02,03,00,11,9.60
2006,02,03,00,12,8.10
2006,02,03,00,13,9.60
2006,02,03,00,14,6.40
2006,02,03,00,15,8.10
2006,02,03,00,16,8.10
2006,02,03,00,17,8.10
2006,02,03,00,18,8.10
2006,02,03,00,19,6.40
2006,02,03,00,20,8.10
2006,02,03,00,21,6.40
2006,02,03,00,22,6.40
2006,02,03,00,23,4.80
2006,02,03,00,24,4.80
2006,02,03,00,25,6.40
2006,02,03,00,26,4.80
2006,02,03,00,27,4.80
2006,02,03,00,28,6.40
2006,02,03,00,29,8.10
2006,02,03,00,30,6.40
2006,02,03,00,31,6.40
2006,02,03,00,32,9.60
2006,02,03,00,33,8.10
2006,02,03,00,34,8.10
2006,02,03,00,35,9.60
2006,02,03,00,36,9.60
2006,02,03,00,37,9.60
2006,02,03,00,38,8.10
2006,02,03,00,39,9.60
2006,02,03,00,40,8.10
2006,02,03,00,41,8.10
2006,02,03,00,42,11.30
2006,02,03,00,43,9.60
2006,02,03,00,44,9.60
2006,02,03,00,45,9.60
2006,02,03,00,46,8.10
2006,02,03,00,47,6.40
2006,02,03,00,48,6.40
2006,02,03,00,49,6.40
2006,02,03,00,50,4.80
2006,02,03,00,51,6.40
2006,02,03,00,52,9.60
2006,02,03,00,53,8.10
2006,02,03,00,54,9.60
2006,02,03,00,55,6.40
2006,02,03,00,56,8.10
2006,02,03,00,57,6.40
2006,02,03,00,58,8.10
2006,02,03,00,59,9.60
2006,02,03,01,00,11.30
2006,02,03,01,01,9.60
2006,02,03,01,02,8.10
2006,02,03,01,03,9.60
2006,02,03,01,04,8.10
2006,02,03,01,05,11.30
2006,02,03,01,06,6.40
2006,02,03,01,07,4.80
2006,02,03,01,08,8.10
2006,02,03,01,09,6.40
2006,02,03,01,10,6.40
2006,02,03,01,11,8.10
2006,02,03,01,12,14.50
2006,02,03,01,13,8.10
2006,02,03,01,14,9.60
2006,02,03,01,15,8.10
2006,02,03,01,16,14.50
2006,02,03,01,17,17.70
2006,02,03,01,18,14.50
2006,02,03,01,19,8.10
2006,02,03,01,20,11.30
2006,02,03,01,21,11.30
2006,02,03,01,22,8.10
2006,02,03,01,23,6.40
2006,02,03,01,24,9.60
2006,02,03,01,25,6.40
2006,02,03,01,26,17.70
2006,02,03,01,27,11.30
2006,02,03,01,28,14.50
2006,02,03,01,29,11.30
2006,02,03,01,30,11.30
2006,02,03,01,31,8.10
2006,02,03,01,32,6.40
2006,02,03,01,33,6.40
2006,02,03,01,34,9.60
2006,02,03,01,35,6.40
2006,02,03,01,36,8.10
2006,02,03,01,37,9.60
2006,02,03,01,38,4.80
2006,02,03,01,39,4.80
2006,02,03,01,40,6.40
2006,02,03,01,41,8.10
2006,02,03,01,42,8.10
2006,02,03,01,43,11.30
2006,02,03,01,44,9.60
2006,02,03,01,45,14.50
2006,02,03,01,46,6.40
2006,02,03,01,47,3.20
2006,02,03,01,48,8.10
2006,02,03,01,49,6.40
2006,02,03,01,50,6.40
2006,02,03,01,51,6.40
2006,02,03,01,52,4.80
2006,02,03,01,53,4.80
2006,02,03,01,54,4.80
2006,02,03,01,55,4.80
2006,02,03,01,56,4.80
2006,02,03,01,57,3.20
2006,02,03,01,58,6.40
2006,02,03,01,59,8.10
2006,02,03,02,00,6.40
2006,02,03,02,01,6.40
2006,02,03,02,02,6.40
2006,02,03,02,03,4.80
2006,02,03,02,04,6.40
2006,02,03,02,05,6.40
2006,02,03,02,06,8.10
2006,02,03,02,07,4.80
2006,02,03,02,08,3.20
2006,02,03,02,09,4.80
2006,02,03,02,10,4.80
2006,02,03,02,11,3.20
2006,02,03,02,12,4.80
2006,02,03,02,13,8.10
2006,02,03,02,14,9.60
2006,02,03,02,15,6.40
2006,02,03,02,16,14.50
2006,02,03,02,17,12.90
2006,02,03,02,18,4.80
2006,02,03,02,19,9.60
2006,02,03,02,20,8.10
2006,02,03,02,21,8.10
2006,02,03,02,22,9.60
2006,02,03,02,23,8.10
2006,02,03,02,24,6.40
2006,02,03,02,25,4.80
2006,02,03,02,26,3.20
2006,02,03,02,27,4.80
2006,02,03,02,28,3.20
2006,02,03,02,29,1.60
2006,02,03,02,30,1.60
2006,02,03,02,31,0.00
2006,02,03,02,32,0.00
2006,02,03,02,33,0.00
2006,02,03,02,34,0.00
2006,02,03,02,35,3.20
2006,02,03,02,36,3.20
2006,02,03,02,37,4.80
2006,02,03,02,38,6.40
2006,02,03,02,39,6.40
2006,02,03,02,40,6.40
2006,02,03,02,41,4.80
2006,02,03,02,42,4.80
2006,02,03,02,43,6.40
2006,02,03,02,44,6.40
2006,02,03,02,45,6.40
2006,02,03,02,46,4.80
2006,02,03,02,47,4.80
2006,02,03,02,48,6.40
2006,02,03,02,49,4.80
2006,02,03,02,50,8.10
2006,02,03,02,51,6.40
2006,02,03,02,52,6.40
2006,02,03,02,53,8.10
2006,02,03,02,54,9.60
2006,02,03,02,55,4.80
2006,02,03,02,56,8.10
2006,02,03,02,57,8.10
2006,02,03,02,58,8.10
2006,02,03,02,59,9.60
2006,02,03,03,00,8.10
2006,02,03,03,01,8.10
2006,02,03,03,02,6.40
2006,02,03,03,03,6.40
2006,02,03,03,04,6.40
2006,02,03,03,05,8.10
2006,02,03,03,06,6.40
2006,02,03,03,07,6.40
2006,02,03,03,08,4.80
2006,02,03,03,09,4.80
2006,02,03,03,10,4.80
2006,02,03,03,11,6.40
2006,02,03,03,12,8.10
2006,02,03,03,13,8.10
2006,02,03,03,14,6.40
2006,02,03,03,15,6.40
2006,02,03,03,16,8.10
2006,02,03,03,17,4.80
2006,02,03,03,18,9.60
2006,02,03,03,19,6.40
2006,02,03,03,20,4.80
2006,02,03,03,21,4.80
2006,02,03,03,22,6.40
2006,02,03,03,23,6.40
2006,02,03,03,24,4.80
2006,02,03,03,25,3.20
2006,02,03,03,26,4.80
2006,02,03,03,27,6.40
2006,02,03,03,28,6.40
2006,02,03,03,29,6.40
2006,02,03,03,30,4.80
2006,02,03,03,31,6.40
2006,02,03,03,32,3.20
2006,02,03,03,33,3.20
2006,02,03,03,34,3.20
2006,02,03,03,35,3.20
2006,02,03,03,36,0.00
2006,02,03,03,37,0.00
2006,02,03,03,38,3.20
2006,02,03,03,39,3.20
2006,02,03,03,40,3.20
2006,02,03,03,41,0.00
2006,02,03,03,42,3.20
2006,02,03,03,43,6.40
2006,02,03,03,44,3.20
2006,02,03,03,45,3.20
2006,02,03,03,46,3.20
2006,02,03,03,47,3.20
2006,02,03,03,48,3.20
2006,02,03,03,49,4.80
2006,02,03,03,50,4.80
2006,02,03,03,51,4.80
2006,02,03,03,52,6.40
2006,02,03,03,53,8.10
2006,02,03,03,54,6.40
2006,02,03,03,55,4.80
2006,02,03,03,56,6.40
2006,02,03,03,57,4.80
2006,02,03,03,58,4.80
2006,02,03,03,59,8.10
2006,02,03,04,00,4.80
2006,02,03,04,01,6.40
2006,02,03,04,02,3.20
2006,02,03,04,03,4.80
2006,02,03,04,04,3.20
2006,02,03,04,05,3.20
2006,02,03,04,06,8.10
2006,02,03,04,07,3.20
2006,02,03,04,08,6.40
2006,02,03,04,09,6.40
2006,02,03,04,10,6.40
2006,02,03,04,11,6.40
2006,02,03,04,12,4.80
2006,02,03,04,13,6.40
2006,02,03,04,14,8.10
2006,02,03,04,15,6.40
2006,02,03,04,16,6.40
2006,02,03,04,17,9.60
2006,02,03,04,18,6.40
2006,02,03,04,19,6.40
2006,02,03,04,20,6.40
2006,02,03,04,21,6.40
2006,02,03,04,22,9.60
2006,02,03,04,23,9.60
2006,02,03,04,24,11.30
2006,02,03,04,25,16.10
2006,02,03,04,26,8.10
2006,02,03,04,27,12.90
2006,02,03,04,28,8.10
2006,02,03,04,29,11.30
2006,02,03,04,30,11.30
2006,02,03,04,31,9.60
2006,02,03,04,32,11.30
2006,02,03,04,33,8.10
2006,02,03,04,34,9.60
2006,02,03,04,35,8.10
2006,02,03,04,36,12.90
2006,02,03,04,37,11.30
2006,02,03,04,38,9.60
2006,02,03,04,39,9.60
2006,02,03,04,40,11.30
2006,02,03,04,41,9.60
2006,02,03,04,42,9.60
2006,02,03,04,43,8.10
2006,02,03,04,44,8.10
2006,02,03,04,45,9.60
2006,02,03,04,46,9.60
2006,02,03,04,47,9.60
2006,02,03,04,48,9.60
2006,02,03,04,49,8.10
2006,02,03,04,50,11.30
2006,02,03,04,51,8.10
2006,02,03,04,52,8.10
2006,02,03,04,53,8.10
2006,02,03,04,54,9.60
2006,02,03,04,55,9.60
2006,02,03,04,56,11.30
2006,02,03,04,57,8.10
2006,02,03,04,58,11.30
2006,02,03,04,59,11.30
2006,02,03,05,00,9.60
2006,02,03,05,01,6.40
2006,02,03,05,02,8.10
2006,02,03,05,03,8.10
2006,02,03,05,04,11.30
2006,02,03,05,05,6.40
2006,02,03,05,06,6.40
2006,02,03,05,07,8.10
2006,02,03,05,08,6.40
2006,02,03,05,09,6.40
2006,02,03,05,10,6.40
2006,02,03,05,11,0.00
2006,02,03,05,12,0.00
2006,02,03,05,13,1.60
2006,02,03,05,14,0.00
2006,02,03,05,15,3.20
2006,02,03,05,16,3.20
2006,02,03,05,17,3.20
2006,02,03,05,18,3.20
2006,02,03,05,19,3.20
2006,02,03,05,20,3.20
2006,02,03,05,21,3.20
2006,02,03,05,22,4.80
2006,02,03,05,23,4.80
2006,02,03,05,24,4.80
2006,02,03,05,25,4.80
2006,02,03,05,26,4.80
2006,02,03,05,27,6.40
2006,02,03,05,28,4.80
2006,02,03,05,29,6.40
2006,02,03,05,30,6.40
2006,02,03,05,31,8.10
2006,02,03,05,32,8.10
2006,02,03,05,33,6.40
2006,02,03,05,34,9.60
2006,02,03,05,35,6.40
2006,02,03,05,36,6.40
2006,02,03,05,37,6.40
2006,02,03,05,38,6.40
2006,02,03,05,39,6.40
2006,02,03,05,40,3.20
2006,02,03,05,41,3.20
2006,02,03,05,42,3.20
2006,02,03,05,43,4.80
2006,02,03,05,44,6.40
2006,02,03,05,45,6.40
2006,02,03,05,46,8.10
2006,02,03,05,47,9.60
2006,02,03,05,48,8.10
2006,02,03,05,49,4.80
2006,02,03,05,50,3.20
2006,02,03,05,51,3.20
2006,02,03,05,52,4.80
2006,02,03,05,53,4.80
2006,02,03,05,54,6.40
2006,02,03,05,55,6.40
2006,02,03,05,56,6.40
2006,02,03,05,57,6.40
2006,02,03,05,58,4.80
2006,02,03,05,59,3.20
2006,02,03,06,00,4.80
2006,02,03,06,01,3.20
2006,02,03,06,02,1.60
2006,02,03,06,03,1.60
2006,02,03,06,04,3.20
2006,02,03,06,05,1.60
2006,02,03,06,06,3.20
2006,02,03,06,07,3.20
2006,02,03,06,08,4.80
2006,02,03,06,09,4.80
2006,02,03,06,10,4.80
2006,02,03,06,11,3.20
2006,02,03,06,12,3.20
2006,02,03,06,13,4.80
2006,02,03,06,14,8.10
2006,02,03,06,15,6.40
2006,02,03,06,16,6.40
2006,02,03,06,17,6.40
2006,02,03,06,18,9.60
2006,02,03,06,19,11.30
2006,02,03,06,20,11.30
2006,02,03,06,21,11.30
2006,02,03,06,22,14.50
2006,02,03,06,23,16.10
2006,02,03,06,24,16.10
2006,02,03,06,25,16.10
2006,02,03,06,26,12.90
2006,02,03,06,27,9.60
2006,02,03,06,28,9.60
2006,02,03,06,29,9.60
2006,02,03,06,30,8.10
2006,02,03,06,31,6.40
2006,02,03,06,32,8.10
2006,02,03,06,33,6.40
2006,02,03,06,34,8.10
2006,02,03,06,35,6.40
2006,02,03,06,36,6.40
2006,02,03,06,37,6.40
2006,02,03,06,38,4.80
2006,02,03,06,39,4.80
2006,02,03,06,40,4.80
2006,02,03,06,41,4.80
2006,02,03,06,42,4.80
2006,02,03,06,43,4.80
2006,02,03,06,44,4.80
2006,02,03,06,45,4.80
2006,02,03,06,46,3.20
2006,02,03,06,47,4.80
2006,02,03,06,48,4.80
2006,02,03,06,49,4.80
2006,02,03,06,50,4.80
2006,02,03,06,51,3.20
2006,02,03,06,52,3.20
2006,02,03,06,53,4.80
2006,02,03,06,54,4.80
2006,02,03,06,55,3.20
2006,02,03,06,56,3.20
2006,02,03,06,57,3.20
2006,02,03,06,58,1.60
2006,02,03,06,59,1.60
2006,02,03,07,00,1.60
2006,02,03,07,01,1.60
2006,02,03,07,02,3.20
2006,02,03,07,03,3.20
2006,02,03,07,04,3.20
2006,02,03,07,05,3.20
2006,02,03,07,06,4.80
2006,02,03,07,07,3.20
2006,02,03,07,08,3.20
2006,02,03,07,09,3.20
2006,02,03,07,10,3.20
2006,02,03,07,11,4.80
2006,02,03,07,12,4.80
2006,02,03,07,13,4.80
2006,02,03,07,14,4.80
2006,02,03,07,15,4.80
2006,02,03,07,16,6.40
2006,02,03,07,17,4.80
2006,02,03,07,18,6.40
2006,02,03,07,19,6.40
2006,02,03,07,20,8.10
2006,02,03,07,21,6.40
2006,02,03,07,22,6.40
2006,02,03,07,23,6.40
2006,02,03,07,24,6.40
2006,02,03,07,25,8.10
2006,02,03,07,26,8.10
2006,02,03,07,27,8.10
2006,02,03,07,28,6.40
2006,02,03,07,29,6.40
2006,02,03,07,30,4.80
2006,02,03,07,31,3.20
2006,02,03,07,32,3.20
2006,02,03,07,33,3.20
2006,02,03,07,34,3.20
2006,02,03,07,35,1.60
2006,02,03,07,36,0.00
2006,02,03,07,37,0.00
2006,02,03,07,38,1.60
2006,02,03,07,39,0.00
2006,02,03,07,40,3.20
2006,02,03,07,41,1.60
2006,02,03,07,42,3.20
2006,02,03,07,43,1.60
2006,02,03,07,44,0.00
2006,02,03,07,45,0.00
2006,02,03,07,46,0.00
2006,02,03,07,47,3.20
2006,02,03,07,48,1.60
2006,02,03,07,49,1.60
2006,02,03,07,50,1.60
2006,02,03,07,51,0.00
2006,02,03,07,52,4.80
2006,02,03,07,53,4.80
2006,02,03,07,54,6.40
2006,02,03,07,55,6.40
2006,02,03,07,56,4.80
2006,02,03,07,57,6.40
2006,02,03,07,58,6.40
2006,02,03,07,59,6.40
2006,02,03,08,00,6.40
2006,02,03,08,01,6.40
2006,02,03,08,02,4.80
2006,02,03,08,03,6.40
2006,02,03,08,04,3.20
2006,02,03,08,05,3.20
2006,02,03,08,06,4.80
2006,02,03,08,07,4.80
2006,02,03,08,08,6.40
2006,02,03,08,09,6.40
2006,02,03,08,10,6.40
2006,02,03,08,11,4.80
2006,02,03,08,12,4.80
2006,02,03,08,13,4.80
2006,02,03,08,14,4.80
2006,02,03,08,15,4.80
2006,02,03,08,16,6.40
2006,02,03,08,17,6.40
2006,02,03,08,18,6.40
2006,02,03,08,19,4.80
2006,02,03,08,20,4.80
2006,02,03,08,21,9.60
2006,02,03,08,22,8.10
2006,02,03,08,23,11.30
2006,02,03,08,24,6.40
2006,02,03,08,25,6.40
2006,02,03,08,26,8.10
2006,02,03,08,27,4.80
2006,02,03,08,28,4.80
2006,02,03,08,29,6.40
2006,02,03,08,30,9.60
2006,02,03,08,31,9.60
2006,02,03,08,32,8.10
2006,02,03,08,33,8.10
2006,02,03,08,34,6.40
2006,02,03,08,35,6.40
2006,02,03,08,36,6.40
2006,02,03,08,37,8.10
2006,02,03,08,38,9.60
2006,02,03,08,39,8.10
2006,02,03,08,40,6.40
2006,02,03,08,41,4.80
2006,02,03,08,42,4.80
2006,02,03,08,43,6.40
2006,02,03,08,44,4.80
2006,02,03,08,45,4.80
2006,02,03,08,46,6.40
2006,02,03,08,47,6.40
2006,02,03,08,48,6.40
2006,02,03,08,49,6.40
2006,02,03,08,50,6.40
2006,02,03,08,51,6.40
2006,02,03,08,52,4.80
2006,02,03,08,53,6.40
2006,02,03,08,54,9.60
2006,02,03,08,55,9.60
2006,02,03,08,56,6.40
2006,02,03,08,57,6.40
2006,02,03,08,58,8.10
2006,02,03,08,59,8.10
2006,02,03,09,00,8.10
2006,02,03,09,01,6.40
2006,02,03,09,02,6.40
2006,02,03,09,03,16.10
2006,02,03,09,04,11.30
2006,02,03,09,05,11.30
2006,02,03,09,06,11.30
2006,02,03,09,07,9.60
2006,02,03,09,08,16.10
2006,02,03,09,09,12.90
2006,02,03,09,10,11.30
2006,02,03,09,11,8.10
2006,02,03,09,12,4.80
2006,02,03,09,13,8.10
2006,02,03,09,14,8.10
2006,02,03,09,15,8.10
2006,02,03,09,16,4.80
2006,02,03,09,17,8.10
2006,02,03,09,18,11.30
2006,02,03,09,19,8.10
2006,02,03,09,20,8.10
2006,02,03,09,21,8.10
2006,02,03,09,22,8.10
2006,02,03,09,23,9.60
2006,02,03,09,24,8.10
2006,02,03,09,25,6.40
2006,02,03,09,26,6.40
2006,02,03,09,27,6.40
2006,02,03,09,28,6.40
2006,02,03,09,29,6.40
2006,02,03,09,30,9.60
2006,02,03,09,31,6.40
2006,02,03,09,32,6.40
2006,02,03,09,33,9.60
2006,02,03,09,34,8.10
2006,02,03,09,35,8.10
2006,02,03,09,36,4.80
2006,02,03,09,37,4.80
2006,02,03,09,38,8.10
2006,02,03,09,39,9.60
2006,02,03,09,40,6.40
2006,02,03,09,41,6.40
2006,02,03,09,42,6.40
2006,02,03,09,43,11.30
2006,02,03,09,44,8.10
2006,02,03,09,45,12.90
2006,02,03,09,46,11.30
2006,02,03,09,47,9.60
2006,02,03,09,48,11.30
2006,02,03,09,49,12.90
2006,02,03,09,50,14.50
2006,02,03,09,51,9.60
2006,02,03,09,52,9.60
2006,02,03,09,53,8.10
2006,02,03,09,54,11.30
2006,02,03,09,55,11.30
2006,02,03,09,56,9.60
2006,02,03,09,57,11.30
2006,02,03,09,58,11.30
2006,02,03,09,59,14.50
2006,02,03,10,00,16.10
2006,02,03,10,01,11.30
2006,02,03,10,02,11.30
2006,02,03,10,03,8.10
2006,02,03,10,04,9.60
2006,02,03,10,05,9.60
2006,02,03,10,06,6.40
2006,02,03,10,07,6.40
2006,02,03,10,08,3.20
2006,02,03,10,09,3.20
2006,02,03,10,10,6.40
2006,02,03,10,11,6.40
2006,02,03,10,12,6.40
2006,02,03,10,13,9.60
2006,02,03,10,14,8.10
2006,02,03,10,15,8.10
2006,02,03,10,16,8.10
2006,02,03,10,17,4.80
2006,02,03,10,18,4.80
2006,02,03,10,19,11.30
2006,02,03,10,20,8.10
2006,02,03,10,21,9.60
2006,02,03,10,22,8.10
2006,02,03,10,23,9.60
2006,02,03,10,24,6.40
2006,02,03,10,25,6.40
2006,02,03,10,26,6.40
2006,02,03,10,27,6.40
2006,02,03,10,28,4.80
2006,02,03,10,29,6.40
2006,02,03,10,30,8.10
2006,02,03,10,31,6.40
2006,02,03,10,32,4.80
2006,02,03,10,33,4.80
2006,02,03,10,34,6.40
2006,02,03,10,35,6.40
2006,02,03,10,36,8.10
2006,02,03,10,37,6.40
2006,02,03,10,38,4.80
2006,02,03,10,39,6.40
2006,02,03,10,40,8.10
2006,02,03,10,41,6.40
2006,02,03,10,42,4.80
2006,02,03,10,43,3.20
2006,02,03,10,44,4.80
2006,02,03,10,45,3.20
2006,02,03,10,46,4.80
2006,02,03,10,47,4.80
2006,02,03,10,48,4.80
2006,02,03,10,49,8.10
2006,02,03,10,50,11.30
2006,02,03,10,51,8.10
2006,02,03,10,52,12.90
2006,02,03,10,53,11.30
2006,02,03,10,54,9.60
2006,02,03,10,55,11.30
2006,02,03,10,56,8.10
2006,02,03,10,57,8.10
2006,02,03,10,58,4.80
2006,02,03,10,59,3.20
2006,02,03,11,00,8.10
2006,02,03,11,01,11.30
2006,02,03,11,02,8.10
2006,02,03,11,03,8.10
2006,02,03,11,04,3.20
2006,02,03,11,05,11.30
2006,02,03,11,06,12.90
2006,02,03,11,07,14.50
2006,02,03,11,08,8.10
2006,02,03,11,09,6.40
2006,02,03,11,10,8.10
2006,02,03,11,11,16.10
2006,02,03,11,12,8.10
2006,02,03,11,13,11.30
2006,02,03,11,14,8.10
2006,02,03,11,15,9.60
2006,02,03,11,16,16.10
2006,02,03,11,17,14.50
2006,02,03,11,18,11.30
2006,02,03,11,19,9.60
2006,02,03,11,20,8.10
2006,02,03,11,21,14.50
2006,02,03,11,22,6.40
2006,02,03,11,23,8.10
2006,02,03,11,24,6.40
2006,02,03,11,25,6.40
2006,02,03,11,26,9.60
2006,02,03,11,27,8.10
2006,02,03,11,28,8.10
2006,02,03,11,29,9.60
2006,02,03,11,30,8.10
2006,02,03,11,31,4.80
2006,02,03,11,32,4.80
2006,02,03,11,33,11.30
2006,02,03,11,34,8.10
2006,02,03,11,35,11.30
2006,02,03,11,36,4.80
2006,02,03,11,37,16.10
2006,02,03,11,38,8.10
2006,02,03,11,39,8.10
2006,02,03,11,40,6.40
2006,02,03,11,41,8.10
2006,02,03,11,42,6.40
2006,02,03,11,43,3.20
2006,02,03,11,44,8.10
2006,02,03,11,45,6.40
2006,02,03,11,46,8.10
2006,02,03,11,47,4.80
2006,02,03,11,48,8.10
2006,02,03,11,49,11.30
2006,02,03,11,50,8.10
2006,02,03,11,51,9.60
2006,02,03,11,52,9.60
2006,02,03,11,53,8.10
2006,02,03,11,54,6.40
2006,02,03,11,55,6.40
2006,02,03,11,56,4.80
2006,02,03,11,57,4.80
2006,02,03,11,58,3.20
2006,02,03,11,59,4.80
2006,02,03,12,00,9.60
2006,02,03,12,01,9.60
2006,02,03,12,02,9.60
2006,02,03,12,03,6.40
2006,02,03,12,04,8.10
2006,02,03,12,05,4.80
2006,02,03,12,06,8.10
2006,02,03,12,07,6.40
2006,02,03,12,08,6.40
2006,02,03,12,09,6.40
2006,02,03,12,10,3.20
2006,02,03,12,11,1.60
2006,02,03,12,12,6.40
2006,02,03,12,13,6.40
2006,02,03,12,14,6.40
2006,02,03,12,15,9.60
2006,02,03,12,16,8.10
2006,02,03,12,17,6.40
2006,02,03,12,18,3.20
2006,02,03,12,19,8.10
2006,02,03,12,20,8.10
2006,02,03,12,21,3.20
2006,02,03,12,22,1.60
2006,02,03,12,23,3.20
2006,02,03,12,24,6.40
2006,02,03,12,25,8.10
2006,02,03,12,26,11.30
2006,02,03,12,27,6.40
2006,02,03,12,28,8.10
2006,02,03,12,29,6.40
2006,02,03,12,30,6.40
2006,02,03,12,31,4.80
2006,02,03,12,32,11.30
2006,02,03,12,33,9.60
2006,02,03,12,34,9.60
2006,02,03,12,35,9.60
2006,02,03,12,36,11.30
2006,02,03,12,37,8.10
2006,02,03,12,38,6.40
2006,02,03,12,39,6.40
2006,02,03,12,40,6.40
2006,02,03,12,41,6.40
2006,02,03,12,42,8.10
2006,02,03,12,43,4.80
2006,02,03,12,44,4.80
2006,02,03,12,45,4.80
2006,02,03,12,46,6.40
2006,02,03,12,47,4.80
2006,02,03,12,48,9.60
2006,02,03,12,49,8.10
2006,02,03,12,50,4.80
2006,02,03,12,51,8.10
2006,02,03,12,52,4.80
2006,02,03,12,53,8.10
2006,02,03,12,54,8.10
2006,02,03,12,55,9.60
2006,02,03,12,56,4.80
2006,02,03,12,57,8.10
2006,02,03,12,58,8.10
2006,02,03,12,59,9.60
2006,02,03,13,00,8.10
2006,02,03,13,01,6.40
2006,02,03,13,02,9.60
2006,02,03,13,03,6.40
2006,02,03,13,04,4.80
2006,02,03,13,05,6.40
2006,02,03,13,06,6.40
2006,02,03,13,07,14.50
2006,02,03,13,08,8.10
2006,02,03,13,09,8.10
2006,02,03,13,10,11.30
2006,02,03,13,11,8.10
2006,02,03,13,12,11.30
2006,02,03,13,13,8.10
2006,02,03,13,14,6.40
2006,02,03,13,15,8.10
2006,02,03,13,16,9.60
2006,02,03,13,17,8.10
2006,02,03,13,18,8.10
2006,02,03,13,19,11.30
2006,02,03,13,20,6.40
2006,02,03,13,21,11.30
2006,02,03,13,22,9.60
2006,02,03,13,23,6.40
2006,02,03,13,24,9.60
2006,02,03,13,25,16.10
2006,02,03,13,26,14.50
2006,02,03,13,27,14.50
2006,02,03,13,28,14.50
2006,02,03,13,29,11.30
2006,02,03,13,30,11.30
2006,02,03,13,31,8.10
2006,02,03,13,32,8.10
2006,02,03,13,33,16.10
2006,02,03,13,34,11.30
2006,02,03,13,35,9.60
2006,02,03,13,36,11.30
2006,02,03,13,37,16.10
2006,02,03,13,38,11.30
2006,02,03,13,39,11.30
2006,02,03,13,40,9.60
2006,02,03,13,41,9.60
2006,02,03,13,42,9.60
2006,02,03,13,43,9.60
2006,02,03,13,44,6.40
2006,02,03,13,45,8.10
2006,02,03,13,46,11.30
2006,02,03,13,47,11.30
2006,02,03,13,48,9.60
2006,02,03,13,49,8.10
2006,02,03,13,50,9.60
2006,02,03,13,51,8.10
2006,02,03,13,52,11.30
2006,02,03,13,53,8.10
2006,02,03,13,54,9.60
2006,02,03,13,55,11.30
2006,02,03,13,56,11.30
2006,02,03,13,57,9.60
2006,02,03,13,58,6.40
2006,02,03,13,59,9.60
2006,02,03,14,00,4.80
2006,02,03,14,01,12.90
2006,02,03,14,02,6.40
2006,02,03,14,03,6.40
2006,02,03,14,04,6.40
2006,02,03,14,05,8.10
2006,02,03,14,06,6.40
2006,02,03,14,07,8.10
2006,02,03,14,08,6.40
2006,02,03,14,09,1.60
2006,02,03,14,10,9.60
2006,02,03,14,11,4.80
2006,02,03,14,12,4.80
2006,02,03,14,13,4.80
2006,02,03,14,14,14.50
2006,02,03,14,15,12.90
2006,02,03,14,16,6.40
2006,02,03,14,17,6.40
2006,02,03,14,18,9.60
2006,02,03,14,19,6.40
2006,02,03,14,20,6.40
2006,02,03,14,21,6.40
2006,02,03,14,22,11.30
2006,02,03,14,23,11.30
2006,02,03,14,24,11.30
2006,02,03,14,25,14.50
2006,02,03,14,26,9.60
2006,02,03,14,27,11.30
2006,02,03,14,28,8.10
2006,02,03,14,29,8.10
2006,02,03,14,30,8.10
2006,02,03,14,31,4.80
2006,02,03,14,32,4.80
2006,02,03,14,33,4.80
2006,02,03,14,34,8.10
2006,02,03,14,35,9.60
2006,02,03,14,36,3.20
2006,02,03,14,37,9.60
2006,02,03,14,38,9.60
2006,02,03,14,39,14.50
2006,02,03,14,40,9.60
2006,02,03,14,41,9.60
2006,02,03,14,42,4.80
2006,02,03,14,43,6.40
2006,02,03,14,44,16.10
2006,02,03,14,45,9.60
2006,02,03,14,46,6.40
2006,02,03,14,47,6.40
2006,02,03,14,48,17.70
2006,02,03,14,49,16.10
2006,02,03,14,50,9.60
2006,02,03,14,51,8.10
2006,02,03,14,52,9.60
2006,02,03,14,53,6.40
2006,02,03,14,54,8.10
2006,02,03,14,55,8.10
2006,02,03,14,56,8.10
2006,02,03,14,57,17.70
2006,02,03,14,58,8.10
2006,02,03,14,59,16.10
2006,02,03,15,00,16.10
2006,02,03,15,01,6.40
2006,02,03,15,02,4.80
2006,02,03,15,03,6.40
2006,02,03,15,04,4.80
2006,02,03,15,05,11.30
2006,02,03,15,06,14.50
2006,02,03,15,07,14.50
2006,02,03,15,08,11.30
2006,02,03,15,09,9.60
2006,02,03,15,10,6.40
2006,02,03,15,11,8.10
2006,02,03,15,12,3.20
2006,02,03,15,13,8.10
2006,02,03,15,14,14.50
2006,02,03,15,15,3.20
2006,02,03,15,16,17.70
2006,02,03,15,17,14.50
2006,02,03,15,18,9.60
2006,02,03,15,19,9.60
2006,02,03,15,20,12.90
2006,02,03,15,21,9.60
2006,02,03,15,22,17.70
2006,02,03,15,23,11.30
2006,02,03,15,24,14.50
2006,02,03,15,25,9.60
2006,02,03,15,26,14.50
2006,02,03,15,27,4.80
2006,02,03,15,28,19.30
2006,02,03,15,29,16.10
2006,02,03,15,30,16.10
2006,02,03,15,31,11.30
2006,02,03,15,32,11.30
2006,02,03,15,33,11.30
2006,02,03,15,34,9.60
2006,02,03,15,35,17.70
2006,02,03,15,36,9.60
2006,02,03,15,37,17.70
2006,02,03,15,38,9.60
2006,02,03,15,39,16.10
2006,02,03,15,40,17.70
2006,02,03,15,41,6.40
2006,02,03,15,42,8.10
2006,02,03,15,43,1.60
2006,02,03,15,44,8.10
2006,02,03,15,45,11.30
2006,02,03,15,46,8.10
2006,02,03,15,47,11.30
2006,02,03,15,48,8.10
2006,02,03,15,49,6.40
2006,02,03,15,50,16.10
2006,02,03,15,51,8.10
2006,02,03,15,52,9.60
2006,02,03,15,53,14.50
2006,02,03,15,54,6.40
2006,02,03,15,55,9.60
2006,02,03,15,56,9.60
2006,02,03,15,57,6.40
2006,02,03,15,58,8.10
2006,02,03,15,59,6.40
2006,02,03,16,00,9.60
2006,02,03,16,01,9.60
2006,02,03,16,02,6.40
2006,02,03,16,03,4.80
2006,02,03,16,04,4.80
2006,02,03,16,05,1.60
2006,02,03,16,06,14.50
2006,02,03,16,07,9.60
2006,02,03,16,08,6.40
2006,02,03,16,09,6.40
2006,02,03,16,10,4.80
2006,02,03,16,11,4.80
2006,02,03,16,12,6.40
2006,02,03,16,13,11.30
2006,02,03,16,14,11.30
2006,02,03,16,15,14.50
2006,02,03,16,16,19.30
2006,02,03,16,17,14.50
2006,02,03,16,18,14.50
2006,02,03,16,19,11.30
2006,02,03,16,20,16.10
2006,02,03,16,21,22.50
2006,02,03,16,22,11.30
2006,02,03,16,23,14.50
2006,02,03,16,24,9.60
2006,02,03,16,25,9.60
2006,02,03,16,26,17.70
2006,02,03,16,27,19.30
2006,02,03,16,28,14.50
2006,02,03,16,29,19.30
2006,02,03,16,30,17.70
2006,02,03,16,31,17.70
2006,02,03,16,32,20.90
2006,02,03,16,33,11.30
2006,02,03,16,34,19.30
2006,02,03,16,35,17.70
2006,02,03,16,36,24.20
2006,02,03,16,37,17.70
2006,02,03,16,38,11.30
2006,02,03,16,39,11.30
2006,02,03,16,40,22.50
2006,02,03,16,41,29.00
2006,02,03,16,42,27.40
2006,02,03,16,43,20.90
2006,02,03,16,44,17.70
2006,02,03,16,45,17.70
2006,02,03,16,46,22.50
2006,02,03,16,47,16.10
2006,02,03,16,48,20.90
2006,02,03,16,49,24.20
2006,02,03,16,50,22.50
2006,02,03,16,51,20.90
2006,02,03,16,52,14.50
2006,02,03,16,53,19.30
2006,02,03,16,54,16.10
2006,02,03,16,55,11.30
2006,02,03,16,56,11.30
2006,02,03,16,57,6.40
2006,02,03,16,58,17.70
2006,02,03,16,59,11.30
2006,02,03,17,00,12.90
2006,02,03,17,01,16.10
2006,02,03,17,02,11.30
2006,02,03,17,03,8.10
2006,02,03,17,04,9.60
2006,02,03,17,05,17.70
2006,02,03,17,06,12.90
2006,02,03,17,07,11.30
2006,02,03,17,08,9.60
2006,02,03,17,09,11.30
2006,02,03,17,10,8.10
2006,02,03,17,11,14.50
2006,02,03,17,12,9.60
2006,02,03,17,13,9.60
2006,02,03,17,14,16.10
2006,02,03,17,15,11.30
2006,02,03,17,16,8.10
2006,02,03,17,17,12.90
2006,02,03,17,18,11.30
2006,02,03,17,19,11.30
2006,02,03,17,20,8.10
2006,02,03,17,21,20.90
2006,02,03,17,22,11.30
2006,02,03,17,23,14.50
2006,02,03,17,24,17.70
2006,02,03,17,25,14.50
2006,02,03,17,26,20.90
2006,02,03,17,27,19.30
2006,02,03,17,28,6.40
2006,02,03,17,29,9.60
2006,02,03,17,30,16.10
2006,02,03,17,31,11.30
2006,02,03,17,32,9.60
2006,02,03,17,33,4.80
2006,02,03,17,34,11.30
2006,02,03,17,35,8.10
2006,02,03,17,36,4.80
2006,02,03,17,37,9.60
2006,02,03,17,38,16.10
2006,02,03,17,39,11.30
2006,02,03,17,40,9.60
2006,02,03,17,41,11.30
2006,02,03,17,42,20.90
2006,02,03,17,43,8.10
2006,02,03,17,44,17.70
2006,02,03,17,45,16.10
2006,02,03,17,46,25.70
2006,02,03,17,47,16.10
2006,02,03,17,48,8.10
2006,02,03,17,49,11.30
2006,02,03,17,50,19.30
2006,02,03,17,51,14.50
2006,02,03,17,52,20.90
2006,02,03,17,53,27.40
2006,02,03,17,54,14.50
2006,02,03,17,55,17.70
2006,02,03,17,56,16.10